Location: Newark
(45.8667°N, 9.7333°E)
Time: 18:04:25
(UTC+00:00)

A-11 Canister half - Pass Details

Date: 28 January 2020
Orbit: 1517 x 1683 km, 47.2° (Epoch: 22 February)

Event Time Altitude Azimuth Distance (km) Brightness Sun altitude
Rises 21:10:14 0° 214° (SW) 4,780 11.6 -49.4°
Enters shadow 21:10:37 - 214° (SSW) 4,663 11.6 -49.5°
Reaches altitude 10° 21:13:33 10° 208° (SSW) 3,774 - -49.9°
Maximum altitude 21:22:19 43° 141° (SE) 2,049 - -51.2°
Drops below altitude 10° 21:30:53 10° 74° (ENE) 3,693 - -52.4°
Sets 21:34:04 0° 68° (ENE) 4,669 - -52.8°
